When you browse on this site, cookies collect data to enhance your experience and personalize the content and advertising you see.
Visit our Privacy Policy to learn more. By continuing to use the site, you agree to this use of cookies and data.
  • In France
  • List of Countries
  • For 7 days
  • Water Temperature
  • Weather Map
  • Weather Widgets
  • user-avatar
    Login

    Hourly Weather Boa Vista

    Today, 7 December, Saturday

    Time Temperature Precipitation Wind Pressure Humidity
    00:00 +27°C° 0 mm 3 mps 752 mmHg 80%
    01:00 +27°C° 0 mm 2 mps 751 mmHg 81%
    02:00 +27°C° 0 mm 2 mps 751 mmHg 82%
    03:00 +27°C° 0.2 mm 2 mps 751 mmHg 83%
    04:00 +26°C° 0.2 mm 2 mps 751 mmHg 84%
    05:00 +26°C° 0.2 mm 2 mps 751 mmHg 86%
    06:00 +27°C° 0.1 mm 2 mps 752 mmHg 82%
    07:00 +28°C° 0.1 mm 3 mps 753 mmHg 77%
    08:00 +29°C° 0.1 mm 3 mps 753 mmHg 73%
    09:00 +32°C° 0.1 mm 4 mps 753 mmHg 68%
    10:00 +33°C° 0.1 mm 4 mps 753 mmHg 63%
    11:00 +34°C° 0.1 mm 4 mps 753 mmHg 57%
    12:00 +35°C° 0.3 mm 4 mps 752 mmHg 55%
    13:00 +35°C° 0.3 mm 3 mps 751 mmHg 53%
    14:00 +36°C° 0.3 mm 3 mps 750 mmHg 51%
    15:00 +36°C° 0 mm 3 mps 749 mmHg 53%
    16:00 +35°C° 0 mm 2 mps 749 mmHg 55%
    17:00 +35°C° 0 mm 2 mps 749 mmHg 56%
    18:00 +32°C° 0 mm 2 mps 749 mmHg 60%
    19:00 +31°C° 0 mm 2 mps 750 mmHg 64%
    20:00 +30°C° 0 mm 2 mps 750 mmHg 67%
    21:00 +29°C° 0.8 mm 2 mps 751 mmHg 72%
    22:00 +28°C° 0.8 mm 1 mps 751 mmHg 77%
    23:00 +27°C° 0.8 mm 1 mps 751 mmHg 82%

    Tomorrow, 8 December, Sunday

    Time Temperature Precipitation Wind Pressure Humidity
    00:00 +27°C° 0.3 mm 1 mps 751 mmHg 82%
    01:00 +27°C° 0.3 mm 1 mps 750 mmHg 82%
    02:00 +27°C° 0.3 mm 2 mps 750 mmHg 82%
    03:00 +27°C° 0 mm 2 mps 750 mmHg 83%
    04:00 +26°C° 0 mm 2 mps 750 mmHg 84%
    05:00 +26°C° 0 mm 1 mps 751 mmHg 85%
    06:00 +27°C° 0 mm 2 mps 751 mmHg 81%
    07:00 +28°C° 0 mm 3 mps 752 mmHg 77%
    08:00 +29°C° 0 mm 3 mps 753 mmHg 73%
    09:00 +30°C° 0.1 mm 4 mps 752 mmHg 67%
    10:00 +33°C° 0.1 mm 4 mps 752 mmHg 61%
    11:00 +34°C° 0.1 mm 4 mps 752 mmHg 55%
    12:00 +35°C° 0.2 mm 4 mps 751 mmHg 55%
    13:00 +35°C° 0.2 mm 3 mps 750 mmHg 54%
    14:00 +35°C° 0.2 mm 3 mps 749 mmHg 53%
    15:00 +35°C° 0 mm 2 mps 749 mmHg 54%
    16:00 +35°C° 0 mm 2 mps 749 mmHg 55%
    17:00 +33°C° 0 mm 1 mps 749 mmHg 56%
    18:00 +32°C° 0.1 mm 1 mps 749 mmHg 60%
    19:00 +31°C° 0.1 mm 1 mps 750 mmHg 63%
    20:00 +29°C° 0.1 mm 1 mps 750 mmHg 67%
    21:00 +29°C° 0.5 mm 1 mps 751 mmHg 71%
    22:00 +28°C° 0.5 mm 1 mps 751 mmHg 76%
    23:00 +25°C° 0.5 mm 0 mps 751 mmHg 81%

    Day after tomorrow, 9 December, Monday

    Time Temperature Precipitation Wind Pressure Humidity
    00:00 +25°C° 0.1 mm 0 mps 751 mmHg 82%
    01:00 +25°C° 0.1 mm 0 mps 750 mmHg 83%
    02:00 +25°C° 0.1 mm 0 mps 750 mmHg 84%
    03:00 +24°C° 0 mm 0 mps 750 mmHg 85%
    04:00 +24°C° 0 mm 0 mps 751 mmHg 86%
    05:00 +24°C° 0 mm 0 mps 751 mmHg 87%
    06:00 +27°C° 0 mm 1 mps 751 mmHg 83%
    07:00 +28°C° 0 mm 2 mps 752 mmHg 78%
    08:00 +29°C° 0 mm 2 mps 753 mmHg 74%
    09:00 +30°C° 0 mm 3 mps 753 mmHg 68%
    10:00 +31°C° 0 mm 3 mps 752 mmHg 62%
    11:00 +34°C° 0 mm 3 mps 752 mmHg 57%
    12:00 +35°C° 0 mm 3 mps 751 mmHg 54%
    13:00 +35°C° 0 mm 3 mps 750 mmHg 51%
    14:00 +36°C° 0 mm 3 mps 750 mmHg 48%
    15:00 +35°C° 0 mm 3 mps 749 mmHg 50%
    16:00 +35°C° 0 mm 2 mps 749 mmHg 52%
    17:00 +35°C° 0 mm 2 mps 749 mmHg 55%
    18:00 +32°C° 0 mm 1 mps 750 mmHg 58%
    19:00 +31°C° 0 mm 1 mps 750 mmHg 62%
    20:00 +30°C° 0 mm 1 mps 751 mmHg 65%
    21:00 +29°C° 0.2 mm 1 mps 751 mmHg 70%
    22:00 +28°C° 0.2 mm 1 mps 751 mmHg 75%
    23:00 +27°C° 0.2 mm 1 mps 751 mmHg 79%

    10 December, Tuesday

    Time Temperature Precipitation Wind Pressure Humidity
    00:00 +27°C° 0 mm 1 mps 751 mmHg 80%
    01:00 +27°C° 0 mm 1 mps 751 mmHg 81%
    02:00 +27°C° 0 mm 1 mps 750 mmHg 82%
    03:00 +26°C° 0 mm 1 mps 750 mmHg 83%
    04:00 +26°C° 0 mm 2 mps 751 mmHg 84%
    05:00 +26°C° 0 mm 2 mps 751 mmHg 85%
    06:00 +27°C° 0 mm 2 mps 752 mmHg 81%
    07:00 +28°C° 0 mm 3 mps 752 mmHg 78%
    08:00 +28°C° 0 mm 4 mps 753 mmHg 75%
    09:00 +30°C° 0 mm 4 mps 753 mmHg 69%
    10:00 +32°C° 0 mm 4 mps 753 mmHg 63%
    11:00 +34°C° 0 mm 4 mps 753 mmHg 57%
    12:00 +34°C° 0.2 mm 4 mps 752 mmHg 56%
    13:00 +35°C° 0.2 mm 4 mps 751 mmHg 55%
    14:00 +35°C° 0.2 mm 3 mps 750 mmHg 53%
    15:00 +34°C° 0.1 mm 3 mps 749 mmHg 56%
    16:00 +34°C° 0.1 mm 2 mps 749 mmHg 59%
    17:00 +34°C° 0.1 mm 2 mps 749 mmHg 61%
    18:00 +31°C° 0 mm 2 mps 749 mmHg 63%
    19:00 +30°C° 0 mm 1 mps 750 mmHg 65%
    20:00 +29°C° 0 mm 1 mps 750 mmHg 67%
    21:00 +29°C° 0.1 mm 1 mps 751 mmHg 69%
    22:00 +28°C° 0.1 mm 2 mps 751 mmHg 72%
    23:00 +28°C° 0.1 mm 2 mps 751 mmHg 74%

    11 December, Wednesday

    Time Temperature Precipitation Wind Pressure Humidity
    00:00 +28°C° 0 mm 2 mps 751 mmHg 75%
    01:00 +27°C° 0 mm 2 mps 750 mmHg 76%
    02:00 +27°C° 0 mm 3 mps 750 mmHg 77%
    03:00 +27°C° 0 mm 3 mps 750 mmHg 78%
    04:00 +27°C° 0 mm 3 mps 750 mmHg 79%
    05:00 +26°C° 0 mm 3 mps 750 mmHg 79%
    06:00 +27°C° 0 mm 4 mps 751 mmHg 77%
    07:00 +28°C° 0 mm 4 mps 752 mmHg 75%
    08:00 +29°C° 0 mm 5 mps 752 mmHg 73%
    09:00 +30°C° 0 mm 4 mps 752 mmHg 68%
    10:00 +32°C° 0 mm 4 mps 752 mmHg 62%
    11:00 +34°C° 0 mm 4 mps 752 mmHg 57%
    12:00 +34°C° 0.1 mm 4 mps 751 mmHg 55%
    13:00 +35°C° 0.1 mm 3 mps 750 mmHg 53%
    14:00 +35°C° 0.1 mm 3 mps 749 mmHg 50%
    15:00 +35°C° 0 mm 2 mps 748 mmHg 52%
    16:00 +35°C° 0 mm 2 mps 748 mmHg 54%
    17:00 +34°C° 0 mm 2 mps 748 mmHg 55%
    18:00 +32°C° 0 mm 1 mps 748 mmHg 58%
    19:00 +31°C° 0 mm 1 mps 749 mmHg 60%
    20:00 +30°C° 0 mm 1 mps 750 mmHg 62%
    21:00 +30°C° 0 mm 1 mps 750 mmHg 64%
    22:00 +29°C° 0 mm 2 mps 750 mmHg 65%
    23:00 +29°C° 0 mm 2 mps 750 mmHg 66%

    12 December, Thursday

    Time Temperature Precipitation Wind Pressure Humidity
    00:00 +28°C° 0 mm 2 mps 750 mmHg 68%
    01:00 +28°C° 0 mm 2 mps 750 mmHg 70%
    02:00 +27°C° 0 mm 2 mps 749 mmHg 72%
    03:00 +27°C° 0 mm 2 mps 749 mmHg 73%
    04:00 +27°C° 0 mm 3 mps 749 mmHg 75%
    05:00 +26°C° 0 mm 3 mps 750 mmHg 76%
    06:00 +27°C° 0 mm 3 mps 750 mmHg 74%
    07:00 +28°C° 0 mm 4 mps 751 mmHg 71%
    08:00 +29°C° 0 mm 5 mps 752 mmHg 69%
    09:00 +30°C° 0 mm 4 mps 752 mmHg 64%
    10:00 +33°C° 0 mm 4 mps 752 mmHg 59%
    11:00 +34°C° 0 mm 4 mps 752 mmHg 54%
    12:00 +35°C° 0.1 mm 4 mps 751 mmHg 52%
    13:00 +35°C° 0.1 mm 3 mps 749 mmHg 50%
    14:00 +35°C° 0.1 mm 3 mps 748 mmHg 48%
    15:00 +35°C° 0 mm 2 mps 748 mmHg 50%
    16:00 +35°C° 0 mm 2 mps 748 mmHg 51%
    17:00 +35°C° 0 mm 2 mps 747 mmHg 53%
    18:00 +32°C° 0 mm 1 mps 748 mmHg 56%
    19:00 +31°C° 0 mm 1 mps 749 mmHg 59%
    20:00 +30°C° 0 mm 1 mps 749 mmHg 62%
    21:00 +29°C° 0 mm 1 mps 749 mmHg 66%
    22:00 +29°C° 0 mm 1 mps 750 mmHg 69%
    23:00 +28°C° 0 mm 1 mps 750 mmHg 72%
    Show more